PHJER EGAA-EGPH

Flight info

Callsign PHJER
Flight time 0h 37m
Altitude 19000
Route BLACA P600 TUNSO
Aircraft TBM8/L-SDFGRWY/S

Departure

Time 2026-04-25 09:57
Airport Belfast International Airport (EGAA)

Arrival

Time 2026-04-25 10:35
Airport Edinburgh Airport (EGPH)
Time Latitude Longitude Altitude Speed Heading
2026-04-25 09:46 54.66193 -6.20845 267 ft 0 kts 315°
2026-04-25 09:52 54.66201 -6.20861 267 ft 11 kts 303°
2026-04-25 09:52 54.66199 -6.20892 267 ft 1 kts 217°
2026-04-25 09:53 54.66135 -6.20856 267 ft 14 kts 111°
2026-04-25 09:53 54.66184 -6.20650 267 ft 24 kts 65°
2026-04-25 09:53 54.66241 -6.20438 267 ft 21 kts 64°
2026-04-25 09:53 54.66307 -6.20192 267 ft 24 kts 65°
2026-04-25 09:54 54.66371 -6.19954 267 ft 17 kts 65°
2026-04-25 09:54 54.66396 -6.19817 267 ft 11 kts 96°
2026-04-25 09:54 54.66358 -6.19710 267 ft 0 kts 155°
2026-04-25 09:55 54.66357 -6.19709 267 ft 0 kts 155°
2026-04-25 09:55 54.66265 -6.19662 267 ft 18 kts 227°
2026-04-25 09:55 54.66259 -6.19686 267 ft 0 kts 245°
2026-04-25 09:56 54.66231 -6.19796 267 ft 36 kts 244°
2026-04-25 09:56 54.66034 -6.20532 273 ft 95 kts 246°
2026-04-25 09:57 54.65747 -6.21735 480 ft 122 kts 248°
2026-04-25 09:57 54.65416 -6.23225 829 ft 144 kts 262°
2026-04-25 09:57 54.65682 -6.24848 1438 ft 146 kts 306°
2026-04-25 09:57 54.66511 -6.25799 2069 ft 144 kts 347°
2026-04-25 09:58 54.67507 -6.25628 2604 ft 151 kts 27°
2026-04-25 09:58 54.68205 -6.24440 3296 ft 140 kts 70°
2026-04-25 09:58 54.68318 -6.22699 3674 ft 153 kts 91°
2026-04-25 09:58 54.68338 -6.20825 4185 ft 155 kts 88°
2026-04-25 09:59 54.68453 -6.19057 4987 ft 142 kts 84°
2026-04-25 09:59 54.68578 -6.17398 5645 ft 134 kts 83°
2026-04-25 09:59 54.68684 -6.15763 6116 ft 143 kts 85°
2026-04-25 09:59 54.68798 -6.13981 6507 ft 155 kts 85°
2026-04-25 10:00 54.68918 -6.12072 6889 ft 164 kts 84°
2026-04-25 10:00 54.69053 -6.10072 7278 ft 171 kts 84°
2026-04-25 10:00 54.69183 -6.07994 7672 ft 176 kts 89°
2026-04-25 10:00 54.69251 -6.05853 8082 ft 181 kts 82°
2026-04-25 10:01 54.69627 -6.03747 8490 ft 185 kts 71°
2026-04-25 10:01 54.70102 -6.01654 8902 ft 189 kts 71°
2026-04-25 10:01 54.70566 -5.99502 9319 ft 192 kts 72°
2026-04-25 10:01 54.71043 -5.97336 9740 ft 194 kts 71°
2026-04-25 10:02 54.71521 -5.95146 10174 ft 196 kts 72°
2026-04-25 10:02 54.72000 -5.92934 10543 ft 197 kts 72°
2026-04-25 10:02 54.72477 -5.90710 10933 ft 198 kts 72°
2026-04-25 10:02 54.72958 -5.88477 11320 ft 198 kts 72°
2026-04-25 10:03 54.73442 -5.86233 11721 ft 199 kts 72°
2026-04-25 10:03 54.73926 -5.83986 12123 ft 200 kts 73°
2026-04-25 10:03 54.74413 -5.81723 12531 ft 201 kts 73°
2026-04-25 10:03 54.74901 -5.79457 12945 ft 202 kts 73°
2026-04-25 10:04 54.75389 -5.77173 13361 ft 203 kts 73°
2026-04-25 10:04 54.75880 -5.74886 13790 ft 203 kts 73°
2026-04-25 10:04 54.76371 -5.72601 14188 ft 202 kts 73°
2026-04-25 10:04 54.76860 -5.70313 14571 ft 202 kts 73°
2026-04-25 10:05 54.77350 -5.68024 14957 ft 203 kts 73°
2026-04-25 10:05 54.77838 -5.65737 15344 ft 203 kts 73°
2026-04-25 10:05 54.78327 -5.63445 15742 ft 203 kts 73°
2026-04-25 10:05 54.78814 -5.61157 16135 ft 203 kts 73°
2026-04-25 10:06 54.79301 -5.58868 16551 ft 202 kts 73°
2026-04-25 10:06 54.79786 -5.56581 16955 ft 202 kts 73°
2026-04-25 10:06 54.80273 -5.54295 17373 ft 202 kts 73°
2026-04-25 10:06 54.80757 -5.52009 17795 ft 202 kts 73°
2026-04-25 10:07 54.81240 -5.49729 18224 ft 201 kts 73°
2026-04-25 10:07 54.81722 -5.47454 18633 ft 201 kts 73°
2026-04-25 10:07 54.82201 -5.45188 19006 ft 200 kts 73°
2026-04-25 10:07 54.82684 -5.42886 19195 ft 210 kts 72°
2026-04-25 10:08 54.83200 -5.40400 19202 ft 226 kts 72°
2026-04-25 10:08 54.83754 -5.37769 19206 ft 239 kts 72°
2026-04-25 10:08 54.84338 -5.35001 19211 ft 249 kts 72°
2026-04-25 10:08 54.84938 -5.32145 19211 ft 256 kts 72°
2026-04-25 10:09 54.85553 -5.29218 19208 ft 261 kts 72°
2026-04-25 10:09 54.86179 -5.26227 19211 ft 265 kts 72°
2026-04-25 10:09 54.86809 -5.23208 19210 ft 267 kts 72°
2026-04-25 10:09 54.87446 -5.20164 19216 ft 269 kts 72°
2026-04-25 10:10 54.88329 -5.17271 19217 ft 274 kts 55°
2026-04-25 10:10 54.89679 -5.14922 19212 ft 278 kts 39°
2026-04-25 10:10 54.91348 -5.13283 19218 ft 281 kts 27°
2026-04-25 10:10 54.93125 -5.11775 19218 ft 281 kts 28°
2026-04-25 10:11 54.94854 -5.10260 19214 ft 282 kts 28°
2026-04-25 10:11 54.96635 -5.08715 19214 ft 283 kts 28°
2026-04-25 10:11 54.98401 -5.07194 19217 ft 283 kts 28°
2026-04-25 10:11 55.00161 -5.05673 19216 ft 283 kts 28°
2026-04-25 10:12 55.01903 -5.04157 19215 ft 283 kts 28°
2026-04-25 10:12 55.03662 -5.02628 19213 ft 283 kts 28°
2026-04-25 10:12 55.07193 -4.99560 19213 ft 283 kts 28°
2026-04-25 10:13 55.08951 -4.98023 19213 ft 282 kts 29°
2026-04-25 10:13 55.10544 -4.96050 19205 ft 281 kts 43°
2026-04-25 10:13 55.12246 -4.94379 19201 ft 285 kts 17°
2026-04-25 10:13 55.14220 -4.94223 19199 ft 288 kts 349°
2026-04-25 10:14 55.15981 -4.95575 19194 ft 288 kts 323°
2026-04-25 10:14 55.17266 -4.98205 19198 ft 286 kts 295°
2026-04-25 10:14 55.18182 -5.01264 19194 ft 285 kts 306°
2026-04-25 10:14 55.19713 -5.03429 19195 ft 287 kts 335°
2026-04-25 10:15 55.21651 -5.04117 19197 ft 286 kts
2026-04-25 10:15 55.23540 -5.03212 19195 ft 283 kts 30°
2026-04-25 10:15 55.24975 -5.00943 19197 ft 278 kts 58°
2026-04-25 10:15 55.25822 -4.97922 19202 ft 276 kts 70°
2026-04-25 10:16 55.26534 -4.94802 19205 ft 276 kts 69°
2026-04-25 10:16 55.27321 -4.91665 18936 ft 287 kts 66°
2026-04-25 10:16 55.28184 -4.88443 18590 ft 296 kts 66°
2026-04-25 10:16 55.29054 -4.85123 18205 ft 302 kts 67°
2026-04-25 10:17 55.29920 -4.81747 17808 ft 305 kts 67°
2026-04-25 10:17 55.30794 -4.78352 17415 ft 306 kts 67°
2026-04-25 10:17 55.31675 -4.74948 17023 ft 306 kts 66°
2026-04-25 10:17 55.32550 -4.71547 16638 ft 305 kts 66°
2026-04-25 10:18 55.33422 -4.68147 16260 ft 305 kts 66°
2026-04-25 10:18 55.34291 -4.64763 15879 ft 303 kts 66°
2026-04-25 10:18 55.35158 -4.61391 15502 ft 302 kts 66°
2026-04-25 10:18 55.36017 -4.58037 15132 ft 300 kts 67°
2026-04-25 10:19 55.36869 -4.54697 14767 ft 299 kts 67°
2026-04-25 10:19 55.37715 -4.51378 14406 ft 297 kts 66°
2026-04-25 10:19 55.38558 -4.48074 14049 ft 295 kts 66°
2026-04-25 10:19 55.39395 -4.44787 13654 ft 293 kts 66°
2026-04-25 10:20 55.40224 -4.41518 13256 ft 292 kts 65°
2026-04-25 10:20 55.41051 -4.38268 12862 ft 290 kts 65°
2026-04-25 10:20 55.41869 -4.35035 12477 ft 289 kts 65°
2026-04-25 10:20 55.42685 -4.31817 12088 ft 287 kts 65°
2026-04-25 10:21 55.43496 -4.28608 11716 ft 286 kts 65°
2026-04-25 10:21 55.44298 -4.25411 11344 ft 285 kts 65°
2026-04-25 10:21 55.45099 -4.22238 10979 ft 284 kts 65°
2026-04-25 10:21 55.45899 -4.19055 10609 ft 283 kts 64°
2026-04-25 10:22 55.46732 -4.15925 10245 ft 281 kts 58°
2026-04-25 10:22 55.47551 -4.14170 9990 ft 278 kts 39°
2026-04-25 10:22 55.49664 -4.11610 9463 ft 275 kts 30°
2026-04-25 10:22 55.51287 -4.09856 9084 ft 273 kts 30°
2026-04-25 10:23 55.52911 -4.08129 8696 ft 272 kts 29°
2026-04-25 10:23 55.54523 -4.06407 8307 ft 270 kts 30°
2026-04-25 10:23 55.56130 -4.04701 7941 ft 269 kts 30°
2026-04-25 10:23 55.57736 -4.03014 7569 ft 268 kts 28°
2026-04-25 10:24 55.59332 -4.01340 7204 ft 266 kts 28°
2026-04-25 10:24 55.60922 -3.99676 6840 ft 265 kts 30°
2026-04-25 10:24 55.62505 -3.98029 6478 ft 263 kts 29°
2026-04-25 10:24 55.64081 -3.96384 6094 ft 262 kts 29°
2026-04-25 10:25 55.65651 -3.94762 5712 ft 261 kts 29°
2026-04-25 10:25 55.67214 -3.93146 5336 ft 260 kts 29°
2026-04-25 10:25 55.68767 -3.91530 4960 ft 257 kts 29°
2026-04-25 10:25 55.70300 -3.89925 4572 ft 255 kts 28°
2026-04-25 10:26 55.71825 -3.88316 4190 ft 254 kts 29°
2026-04-25 10:26 55.73285 -3.86747 3954 ft 227 kts 31°
2026-04-25 10:26 55.74541 -3.85384 3947 ft 199 kts 29°
2026-04-25 10:26 55.75694 -3.84179 3946 ft 187 kts 28°
2026-04-25 10:27 55.76796 -3.83021 3952 ft 181 kts 29°
2026-04-25 10:27 55.77875 -3.81889 3950 ft 179 kts 29°
2026-04-25 10:27 55.78946 -3.80774 3947 ft 178 kts 29°
2026-04-25 10:27 55.79940 -3.79438 3827 ft 184 kts 38°
2026-04-25 10:28 55.80951 -3.77950 3556 ft 191 kts 41°
2026-04-25 10:28 55.81766 -3.76063 3278 ft 194 kts 57°
2026-04-25 10:28 55.82487 -3.74033 3022 ft 194 kts 57°
2026-04-25 10:28 55.83178 -3.72037 2979 ft 185 kts 59°
2026-04-25 10:29 55.83823 -3.70114 2981 ft 179 kts 59°
2026-04-25 10:29 55.84476 -3.68223 2980 ft 185 kts 58°
2026-04-25 10:29 55.85166 -3.66212 2986 ft 195 kts 59°
2026-04-25 10:29 55.85870 -3.64110 2994 ft 200 kts 59°
2026-04-25 10:30 55.86596 -3.61979 2997 ft 202 kts 58°
2026-04-25 10:30 55.87082 -3.60561 2989 ft 204 kts 59°
2026-04-25 10:30 55.87752 -3.58518 2789 ft 177 kts 60°
2026-04-25 10:30 55.88351 -3.56783 2552 ft 152 kts 59°
2026-04-25 10:31 55.88910 -3.55222 2350 ft 153 kts 59°
2026-04-25 10:31 55.89466 -3.53585 2143 ft 155 kts 60°
2026-04-25 10:31 55.90005 -3.51971 1946 ft 134 kts 62°
2026-04-25 10:31 55.90409 -3.50777 1773 ft 99 kts 60°
2026-04-25 10:32 55.90758 -3.49763 1637 ft 95 kts 61°
2026-04-25 10:32 55.91106 -3.48762 1498 ft 98 kts 59°
2026-04-25 10:32 55.91470 -3.47738 1427 ft 100 kts 60°
2026-04-25 10:32 55.91818 -3.46642 1270 ft 102 kts 60°
2026-04-25 10:33 55.92191 -3.45559 1102 ft 102 kts 60°
2026-04-25 10:33 55.92549 -3.44502 947 ft 99 kts 60°
2026-04-25 10:33 55.92901 -3.43472 803 ft 97 kts 60°
2026-04-25 10:33 55.93253 -3.42425 656 ft 101 kts 59°
2026-04-25 10:34 55.93616 -3.41363 525 ft 98 kts 58°
2026-04-25 10:34 55.93962 -3.40331 399 ft 97 kts 63°
2026-04-25 10:34 55.94311 -3.39306 224 ft 97 kts 63°
2026-04-25 10:34 55.94633 -3.38330 112 ft 77 kts 60°
2026-04-25 10:35 55.94850 -3.37683 109 ft 49 kts 58°
2026-04-25 10:35 55.95054 -3.37085 107 ft 54 kts 59°
2026-04-25 10:35 55.95229 -3.36574 107 ft 37 kts 59°
2026-04-25 10:35 55.95217 -3.36381 109 ft 9 kts 148°
2026-04-25 10:36 55.95193 -3.36355 110 ft 4 kts 148°
2026-04-25 10:36 55.95171 -3.36328 110 ft 0 kts 143°
2026-04-25 10:37 55.95158 -3.36307 110 ft 10 kts 127°
2026-04-25 10:37 55.95124 -3.36160 111 ft 15 kts 109°
2026-04-25 10:37 55.95086 -3.35969 111 ft 17 kts 118°
2026-04-25 10:37 55.94998 -3.35855 110 ft 19 kts 193°
2026-04-25 10:38 55.94890 -3.35721 111 ft 22 kts 119°
2026-04-25 10:38 55.94820 -3.35490 110 ft 20 kts 118°
2026-04-25 10:38 55.94749 -3.35263 109 ft 21 kts 117°
2026-04-25 10:38 55.94684 -3.35035 111 ft 20 kts 101°
2026-04-25 10:39 55.94741 -3.34811 111 ft 21 kts 60°
2026-04-25 10:39 55.94812 -3.34602 111 ft 17 kts 57°
2026-04-25 10:39 55.94780 -3.34488 110 ft 1 kts 148°